Location: Douces
(47.1931°N, 0.2599°W)
Time: 23:31:36
(UTC+00:00)

Daily predictions for brighter satellites

Satellite Brightness Start Highest point End
(mag) Time Altitude Azimuth Time Altitude Azimuth Time Altitude Azimuth
Meteor PRIRODA 3.6 16:42:26 10° SSE 16:46:00 61° ENE 16:49:36 10° N
ERBS 4.0 16:43:53 10° WNW 16:46:24 21° NNW 16:48:56 10° NNE
SL-16 R/B 3.7 16:43:15 10° N 16:46:35 16° NE 16:49:54 10° ENE
NOAA 12 4.1 16:41:35 10° SSE 16:46:51 65° ENE 16:52:07 10° N
Cosmos 2082 Rocket 3.2 16:46:31 10° SSE 16:51:16 28° ESE 16:56:03 10° NE
Meteor 1-25 Rocket 4.2 16:49:47 10° N 16:55:20 62° ENE 17:00:53 10° SSE
Cosmos 468 Rocket 4.0 16:51:18 10° SSW 16:56:26 72° ESE 17:01:38 10° NNE
Cosmos 1500 Rocket 3.5 16:52:14 10° N 16:56:42 76° E 17:01:05 10° SSE
USA 306 3.9 16:56:06 10° WNW 16:59:57 32° N 17:03:34 11° ENE
Cosmos 1464 Rocket 4.4 16:54:40 10° SSW 17:01:01 71° W 17:07:25 10° N
Cosmos 1898 Rocket 3.5 16:56:42 10° NNW 17:02:00 85° ENE 17:07:12 10° SSE
Cosmos 2278 4.3 16:57:11 10° NNW 17:02:27 36° NE 17:07:40 10° ESE
Cosmos 1818 4.5 16:58:19 10° NNW 17:03:06 29° NE 17:07:50 10° E
CZ-4B DEB 4.4 16:58:01 10° SE 17:03:17 48° ENE 17:08:32 10° N
Cosmos 1602 3.8 17:00:00 10° N 17:03:47 51° ENE 17:07:34 10° SSE
Sich 1 3.4 16:59:49 10° N 17:03:54 42° ENE 17:08:00 10° SSE
Cosmos 2221 3.3 16:59:46 10° SSW 17:03:57 53° WNW 17:08:12 10° N
Cosmos 1939 Rocket 2.9 17:00:49 10° SSE 17:04:51 62° ENE 17:08:54 10° N
Nadezhda 4 Rocket 4.3 16:59:28 10° N 17:05:49 78° W 17:12:08 10° S
Cosmos 2084 4.5 17:01:57 10° NW 17:06:09 52° SW 17:10:29 10° SSE
ARGOS 4.1 17:02:36 10° ESE 17:06:53 25° ENE 17:11:10 10° N
Cosmos 1805 Rocket 3.5 17:04:19 10° N 17:08:37 60° ENE 17:12:54 10° SSE
Cosmos 1833 Rocket 2.7 17:05:17 10° SSW 17:10:53 82° ESE 17:16:34 10° NNE
COSMOS 2406 3.3 17:09:08 10° SSW 17:14:49 69° ESE 17:20:32 10° NNE
NOSS 2-2 (C) 4.3 17:10:51 10° NW 17:15:54 70° NE 17:23:01 10° SE
deb Chang Zheng 4 4.5 17:14:28 10° ESE 17:18:05 27° ENE 17:21:42 10° N
USA 307 3.9 17:15:22 10° WNW 17:19:13 32° N 17:21:59 16° ENE
CZ-2C R/B 3.6 17:16:34 10° S 17:21:22 57° W 17:26:05 10° NNW
USA 267 3.3 17:16:34 12° NE 17:22:45 88° SSE 17:29:19 10° SW
Cosmos 1782 2.9 17:18:53 10° S 17:22:47 55° E 17:26:41 10° NNE
Cosmos 1092 Rocket 4.0 17:16:30 10° N 17:22:54 85° E 17:29:14 10° S
Cosmos 1428 Rocket 4.4 17:17:28 10° N 17:23:37 77° E 17:29:47 10° SSE
CZ-2C R/B 3.3 17:22:25 10° NNE 17:27:00 30° E 17:31:30 10° SSE
Cosmos 1763 Rocket 3.9 17:22:53 10° SW 17:27:53 61° WNW 17:32:59 10° NNE
Cosmos 1500 3.0 17:24:47 10° N 17:28:31 64° E 17:32:12 10° SSE
CZ-2D R/B 3.3 17:25:35 10° SSE 17:29:18 53° ENE 17:33:03 10° N
CZ-4C R/B 3.0 17:22:57 10° NW 17:29:59 65° NE 17:38:16 10° SE
H-2A R/B 2.0 17:27:33 10° SSE 17:32:35 57° ENE 17:37:31 10° N
CZ-4B R/B 3.4 17:28:56 10° SE 17:34:05 47° ENE 17:39:09 10° N
Cosmos 841 Rocket 3.4 17:30:06 10° SSW 17:35:14 73° ESE 17:40:21 10° NNE
PAYLOAD B 4.2 17:30:18 10° SSE 17:35:51 69° ENE 17:41:26 10° N
ATLAS CENTAUR R/B 4.0 17:34:53 10° NW 17:36:24 11° NNW 17:37:57 10° N
Cosmos 1937 Rocket 4.0 17:35:01 10° NNW 17:40:18 64° WSW 17:45:32 10° S
USA 308 3.8 17:38:02 10° WNW 17:41:56 33° N 17:43:39 24° NE
SMAP 3.6 17:37:35 10° S 17:42:11 62° W 17:46:49 10° NNW
Lacrosse 5 rocket 1.7 17:39:35 10° NW 17:43:17 40° NNE 17:44:49 28° ENE
COSMO-SKYMED 1 3.1 17:41:39 19° NE 17:44:22 38° E 17:48:25 10° SSE
Cosmos 2142 Rocket 4.5 17:38:32 10° S 17:44:33 60° E 17:50:41 10° NNE
Cosmos 1125 Rocket 4.2 17:40:15 10° N 17:44:54 31° ENE 17:47:31 20° ESE
Cosmos 921 Rocket 4.1 17:42:06 10° SSE 17:45:22 24° E 17:45:22 24° E
COSMOS 2455 2.8 17:41:29 10° SSW 17:47:31 85° ESE 17:52:28 16° NE
Cosmos 372 Rocket 4.0 17:42:59 10° NNW 17:48:15 83° WSW 17:53:30 10° SSE
Cosmos 2279 Rocket 4.0 17:43:52 10° S 17:49:58 63° E 17:56:05 10° NNE
ATLAS 2AS CENTAUR R/B 4.3 17:44:24 10° NW 17:50:07 22° N 17:54:01 15° NE
Cosmos 1633 Rocket 3.0 17:46:41 10° N 17:51:02 59° ENE 17:55:21 10° SSE
ISS -3.4 17:47:41 10° WNW 17:51:03 63° SSW 17:53:03 22° SE
Cosmos 2360 Rocket 3.5 17:48:03 10° N 17:52:11 20° NE 17:52:11 20° NE
Cosmos 44 Rocket 3.4 17:48:29 10° NNW 17:53:19 50° NE 17:56:04 23° ESE
Cosmos 2266 Rocket 4.4 17:47:43 10° N 17:53:44 42° ENE 17:59:44 10° SE
YAOGAN 1 4.2 17:56:50 18° NNE 17:56:50 18° NNE 17:58:19 10° N
USA 234 3.5 17:50:13 10° SE 17:56:45 72° SW 18:03:18 10° NW
SL-24 R/B - RUBIN 2 4.1 17:52:32 10° NW 17:56:59 59° WSW 18:01:13 10° SSE
Meteor 1-11 Rocket 4.2 17:52:17 10° N 17:57:28 36° ENE 18:02:42 10° SE
Cosmos 1666 2.4 17:54:04 10° N 17:57:48 78° E 18:01:30 10° SSE
Cosmos 1151 Rocket 2.9 17:56:32 10° S 18:00:51 78° E 18:04:41 13° NNE
PSLV R/B 4.4 17:57:49 10° S 18:01:26 55° W 18:05:08 10° NNW
CZ-4 R/B 4.3 18:02:54 10° SSE 18:06:58 63° ENE 18:11:05 10° N
USA 305 3.5 18:04:08 10° NW 18:08:08 39° NNE 18:08:40 37° NNE
Cosmos 1634 Rocket 4.4 18:02:07 10° SSW 18:08:24 65° WNW 18:14:43 10° N
SKYMED 3 4.5 18:06:03 24° NNE 18:08:35 68° ESE 18:12:54 10° S
Cosmos 1900 4.3 18:05:39 10° SSW 18:10:24 58° ESE 18:11:48 41° ENE
Okean O Rocket 1.5 18:08:22 10° SSE 18:12:49 77° ENE 18:17:18 10° N
Cosmos 2322 Rocket 2.6 18:07:59 10° NNW 18:13:18 38° NE 18:13:54 37° ENE
Feng Yun 1-1 Rocket 4.4 18:08:21 10° SE 18:14:07 56° ENE 18:19:50 10° N
Meteor 2-15 4.4 18:08:41 10° S 18:14:40 60° E 18:20:39 10° NNE
Landsat 5 3.4 18:16:56 57° E 18:16:58 57° E 18:20:53 10° S
Cosmos 1666 Rocket 4.1 18:13:24 10° NNW 18:17:47 60° W 18:22:07 10° S
Cosmos 1980 Rocket 3.1 18:13:08 10° NW 18:18:35 50° WSW 18:23:59 10° S
Cosmos 1812 3.4 18:17:20 10° SSW 18:21:06 53° WNW 18:23:53 17° N
Cosmos 1470 Rocket 3.4 18:16:42 10° N 18:21:10 73° E 18:25:38 10° SSE
Cosmos 1328 Rocket 3.5 18:17:07 10° S 18:21:33 90° SSW 18:24:02 26° N
SJ-11-01 4.3 18:17:59 10° SSE 18:22:44 84° WSW 18:27:31 10° NNW
SL-16 R/B 2.1 18:26:13 10° NNW 18:31:53 64° ENE 18:33:21 47° ESE
SKYMED 2 3.8 18:30:16 27° N 18:32:32 70° WNW 18:36:50 10° SSW
Cosmos 1570 Rocket 4.2 18:27:26 10° SSW 18:32:40 71° WNW 18:35:28 28° NNE
Cosmos 1814 Rocket 4.4 18:29:19 10° SW 18:34:28 60° WNW 18:37:31 24° N
Cosmos 2082 Rocket 2.9 18:29:33 10° SW 18:35:05 51° WNW 18:38:46 21° NNE
Meteor 2-8 Rocket 4.5 18:28:56 10° S 18:35:06 82° W 18:41:18 10° N
Cosmos 2298 Rocket 3.9 18:30:00 10° NNW 18:35:22 84° ENE 18:38:49 23° SSE
Cosmos 1655 Rocket 3.9 18:28:56 10° N 18:35:23 84° E 18:41:45 10° S
ATLAS CENTAUR R/B 3.1 18:29:27 10° WSW 18:36:44 41° NW 18:37:45 36° N
USA 306 3.7 18:36:20 10° NW 18:39:34 41° NNW 18:39:34 41° NNW
CZ-2C R/B 3.8 18:40:46 10° SSW 18:42:01 12° S 18:42:01 12° S
Cosmos 2333 Rocket 3.9 18:40:22 10° N 18:42:44 20° N 18:42:44 20° N
ARGOS 3.8 18:41:28 10° S 18:46:47 56° W 18:52:07 10° NNW
Cosmos 1818 3.8 18:41:40 10° NW 18:47:08 68° WSW 18:49:43 31° SSE
NOAA 15 4.5 18:44:29 10° SSE 18:49:47 89° ENE 18:55:06 10° NNW
GEOS 3 Rocket 3.5 18:54:52 77° NNE 18:54:52 77° NNE 18:59:54 10° NW
USA 307 4.3 18:55:32 10° NW 18:58:01 32° NW 18:58:01 32° NW
Meteor 1-27 Rocket 4.0 18:57:32 10° S 19:01:42 53° S 19:01:42 53° S
Cosmos 1515 Rocket 4.5 19:00:42 10° SSW 19:04:04 45° SW 19:04:04 45° SW
USA 267 3.9 19:03:55 39° NNE 19:05:27 46° NNW 19:11:37 10° W
Cosmos 2219 Rocket 4.1 19:00:50 10° N 19:02:19 16° N 19:02:19 16° N
CZ-2C R/B 3.8 19:03:18 14° N 19:07:23 39° WNW 19:12:09 10° SW
H-2A R/B 4.5 19:08:35 10° SW 19:12:22 20° W 19:16:06 10° NW
CZ-4C R/B 4.2 19:11:42 10° NW 19:18:32 40° WSW 19:26:16 10° S
Lacrosse 5 rocket 3.5 19:18:38 10° WNW 19:20:27 24° WNW 19:20:27 24° WNW
Cosmos 2360 Rocket 3.7 19:31:19 10° NNW 19:33:59 29° NNW 19:33:59 29° NNW
ATLAS 2AS CENTAUR R/B 4.2 19:37:02 10° NW 19:41:27 27° N 19:41:27 27° N
Cosmos 2322 Rocket 3.7 19:52:05 10° NW 19:55:46 33° WNW 19:55:46 33° WNW
SL-16 R/B 4.3 20:11:13 10° NW 20:15:18 22° W 20:15:18 22° W
